Time,TemperatureF,DewpointF,PressureIn,WindDirection,WindDirectionDegrees,WindSpeedMPH,WindSpeedGustMPH,Humidity,HourlyPrecipIn,Conditions,Clouds,dailyrainin,SoftwareType,DateUTC
2013-03-02 00:01:00,59.0,6.0,11.23,ENE,73,5.0,7.0,12,-99.99,,,-99.99,,2013-03-02 08:01:00,
2013-03-02 00:11:00,59.0,8.0,11.25,NNE,29,2.0,4.0,13,-99.99,,,-99.99,,2013-03-02 08:11:00,
2013-03-02 00:21:00,55.0,10.0,11.30,NW,305,1.0,2.0,16,-99.99,,,-99.99,,2013-03-02 08:21:00,
2013-03-02 00:31:00,56.0,9.0,11.27,NE,54,2.0,5.0,15,-99.99,,,-99.99,,2013-03-02 08:31:00,
2013-03-02 00:42:00,55.0,11.0,11.30,WSW,249,1.0,2.0,17,-99.99,,,-99.99,,2013-03-02 08:42:00,
2013-03-02 00:52:00,56.0,10.0,11.28,North,3,2.0,4.0,16,-99.99,,,-99.99,,2013-03-02 08:52:00,
2013-03-02 01:01:00,56.0,10.0,11.28,North,3,2.0,4.0,16,-99.99,,,-99.99,,2013-03-02 09:01:00,
2013-03-02 01:11:00,55.0,12.0,11.33,NNE,21,3.0,6.0,18,-99.99,,,-99.99,,2013-03-02 09:11:00,
2013-03-02 01:21:00,54.0,13.0,11.36,NW,305,2.0,3.0,19,-99.99,,,-99.99,,2013-03-02 09:21:00,
2013-03-02 01:31:00,53.0,13.0,11.37,NNW,341,1.0,3.0,20,-99.99,,,-99.99,,2013-03-02 09:31:00,
2013-03-02 01:42:00,53.0,11.0,11.32,South,170,1.0,2.0,18,-99.99,,,-99.99,,2013-03-02 09:42:00,
2013-03-02 01:51:00,54.0,10.0,11.28,WSW,242,1.0,2.0,17,-99.99,,,-99.99,,2013-03-02 09:51:00,
2013-03-02 02:01:00,54.0,10.0,11.28,WSW,242,1.0,2.0,17,-99.99,,,-99.99,,2013-03-02 10:01:00,
2013-03-02 02:21:00,54.0,9.0,11.27,NE,43,0.0,2.0,16,-99.99,,,-99.99,,2013-03-02 10:21:00,
2013-03-02 02:31:00,56.0,6.0,11.18,ESE,112,3.0,5.0,13,-99.99,,,-99.99,,2013-03-02 10:31:00,
2013-03-02 02:42:00,56.0,6.0,11.18,East,90,4.0,6.0,13,-99.99,,,-99.99,,2013-03-02 10:42:00,
2013-03-02 02:51:00,55.0,7.0,11.22,NNE,28,1.0,4.0,14,-99.99,,,-99.99,,2013-03-02 10:51:00,
2013-03-02 03:01:00,55.0,7.0,11.22,NNE,28,1.0,4.0,14,-99.99,,,-99.99,,2013-03-02 11:01:00,
2013-03-02 03:11:00,54.0,10.0,11.27,NW,314,2.0,3.0,17,-99.99,,,-99.99,,2013-03-02 11:11:00,
2013-03-02 03:21:00,53.0,12.0,11.35,WNW,287,2.0,3.0,19,-99.99,,,-99.99,,2013-03-02 11:21:00,
2013-03-02 03:31:00,53.0,12.0,11.32,NW,308,1.0,2.0,19,-99.99,,,-99.99,,2013-03-02 11:31:00,
2013-03-02 03:41:00,53.0,11.0,11.31,NNE,32,1.0,2.0,18,-99.99,,,-99.99,,2013-03-02 11:41:00,
2013-03-02 03:52:00,53.0,13.0,11.36,West,261,1.0,2.0,20,-99.99,,,-99.99,,2013-03-02 11:52:00,
2013-03-02 04:02:00,53.0,13.0,11.36,West,261,1.0,2.0,20,-99.99,,,-99.99,,2013-03-02 12:02:00,
2013-03-02 04:11:00,52.0,14.0,11.41,SW,228,1.0,2.0,22,-99.99,,,-99.99,,2013-03-02 12:11:00,
2013-03-02 04:21:00,52.0,14.0,11.40,WSW,240,0.0,1.0,22,-99.99,,,-99.99,,2013-03-02 12:21:00,
2013-03-02 04:32:00,52.0,12.0,11.36,WNW,286,0.0,2.0,20,-99.99,,,-99.99,,2013-03-02 12:32:00,
2013-03-02 04:43:00,53.0,13.0,11.36,SSW,192,1.0,3.0,20,-99.99,,,-99.99,,2013-03-02 12:43:00,
2013-03-02 04:53:00,52.0,14.0,11.40,SSW,203,1.0,2.0,22,-99.99,,,-99.99,,2013-03-02 12:53:00,
2013-03-02 05:01:00,51.0,14.0,11.41,SW,222,1.0,2.0,22,-99.99,,,-99.99,,2013-03-02 13:01:00,
2013-03-02 05:11:00,51.0,15.0,11.42,SW,224,0.0,2.0,23,-99.99,,,-99.99,,2013-03-02 13:11:00,
2013-03-02 05:21:00,51.0,15.0,11.42,WSW,252,1.0,2.0,23,-99.99,,,-99.99,,2013-03-02 13:21:00,
2013-03-02 05:31:00,51.0,15.0,11.42,SW,221,0.0,1.0,23,-99.99,,,-99.99,,2013-03-02 13:31:00,
2013-03-02 05:41:00,51.0,15.0,11.41,SSW,192,1.0,2.0,23,-99.99,,,-99.99,,2013-03-02 13:41:00,
2013-03-02 05:52:00,52.0,14.0,11.41,SW,219,1.0,2.0,22,-99.99,,,-99.99,,2013-03-02 13:52:00,
2013-03-02 06:01:00,52.0,13.0,11.38,SW,227,1.0,2.0,21,-99.99,,,-99.99,,2013-03-02 14:01:00,
2013-03-02 06:11:00,52.0,14.0,11.40,SSW,200,1.0,2.0,22,-99.99,,,-99.99,,2013-03-02 14:11:00,
2013-03-02 06:21:00,51.0,14.0,11.40,SSW,203,1.0,2.0,22,-99.99,,,-99.99,,2013-03-02 14:21:00,
2013-03-02 06:31:00,52.0,13.0,11.37,SW,220,1.0,2.0,21,-99.99,,,-99.99,,2013-03-02 14:31:00,
2013-03-02 06:42:00,52.0,13.0,11.37,SW,220,1.0,2.0,21,-99.99,,,-99.99,,2013-03-02 14:42:00,
2013-03-02 06:52:00,52.0,14.0,11.39,SW,220,1.0,2.0,22,-99.99,,,-99.99,,2013-03-02 14:52:00,
2013-03-02 07:01:00,52.0,12.0,11.36,SSW,194,1.0,2.0,20,-99.99,,,-99.99,,2013-03-02 15:01:00,
2013-03-02 07:11:00,54.0,11.0,11.30,WSW,245,1.0,3.0,18,-99.99,,,-99.99,,2013-03-02 15:11:00,
2013-03-02 07:21:00,54.0,11.0,11.30,SW,223,2.0,3.0,18,-99.99,,,-99.99,,2013-03-02 15:21:00,
2013-03-02 07:31:00,56.0,12.0,11.30,SSW,194,1.0,3.0,17,-99.99,,,-99.99,,2013-03-02 15:31:00,
2013-03-02 07:41:00,57.0,10.0,11.27,SW,224,2.0,2.0,15,-99.99,,,-99.99,,2013-03-02 15:41:00,
2013-03-02 07:51:00,58.0,9.0,11.28,SSW,193,1.0,2.0,14,-99.99,,,-99.99,,2013-03-02 15:51:00,
2013-03-02 08:01:00,59.0,11.0,11.31,SW,220,1.0,2.0,15,-99.99,,,-99.99,,2013-03-02 16:01:00,
2013-03-02 08:11:00,60.0,14.0,11.36,ESE,120,1.0,2.0,16,-99.99,,,-99.99,,2013-03-02 16:11:00,
2013-03-02 08:21:00,62.0,15.0,11.40,West,274,1.0,2.0,16,-99.99,,,-99.99,,2013-03-02 16:21:00,
2013-03-02 08:31:00,61.0,16.0,11.43,WNW,299,2.0,3.0,17,-99.99,,,-99.99,,2013-03-02 16:31:00,
2013-03-02 08:41:00,61.0,16.0,11.43,NW,321,2.0,3.0,17,-99.99,,,-99.99,,2013-03-02 16:41:00,
2013-03-02 08:51:00,62.0,18.0,11.49,NNW,333,2.0,3.0,18,-99.99,,,-99.99,,2013-03-02 16:51:00,
2013-03-02 09:01:00,64.0,18.0,11.50,West,269,1.0,4.0,17,-99.99,,,-99.99,,2013-03-02 17:01:00,
2013-03-02 09:11:00,66.0,14.0,11.41,SE,138,6.0,12.0,13,-99.99,,,-99.99,,2013-03-02 17:11:00,
2013-03-02 09:21:00,66.0,14.0,11.39,SE,137,6.0,12.0,13,-99.99,,,-99.99,,2013-03-02 17:21:00,
2013-03-02 09:31:00,67.0,13.0,11.41,SE,133,6.0,11.0,12,-99.99,,,-99.99,,2013-03-02 17:31:00,
2013-03-02 09:41:00,68.0,14.0,11.42,SSE,153,6.0,11.0,12,-99.99,,,-99.99,,2013-03-02 17:41:00,
2013-03-02 09:52:00,68.0,14.0,11.42,SSE,150,6.0,11.0,12,-99.99,,,-99.99,,2013-03-02 17:52:00,
2013-03-02 10:01:00,68.0,14.0,11.43,SE,139,8.0,12.0,12,-99.99,,,-99.99,,2013-03-02 18:01:00,
2013-03-02 10:11:00,69.0,12.0,11.42,SSE,153,7.0,13.0,11,-99.99,,,-99.99,,2013-03-02 18:11:00,
2013-03-02 10:21:00,69.0,14.0,11.45,SSE,149,7.0,13.0,12,-99.99,,,-99.99,,2013-03-02 18:21:00,
2013-03-02 10:31:00,69.0,12.0,11.42,SSE,149,7.0,14.0,11,-99.99,,,-99.99,,2013-03-02 18:31:00,
2013-03-02 10:41:00,69.0,10.0,11.42,SSE,150,8.0,13.0,10,-99.99,,,-99.99,,2013-03-02 18:41:00,
2013-03-02 10:51:00,69.0,8.0,11.40,SSE,153,8.0,14.0,9,-99.99,,,-99.99,,2013-03-02 18:51:00,
2013-03-02 11:01:00,69.0,8.0,11.40,SSE,153,8.0,14.0,9,-99.99,,,-99.99,,2013-03-02 19:01:00,
2013-03-02 11:11:00,69.0,10.0,11.43,SSE,148,8.0,14.0,10,-99.99,,,-99.99,,2013-03-02 19:11:00,
2013-03-02 11:21:00,70.0,11.0,11.45,SE,141,7.0,12.0,10,-99.99,,,-99.99,,2013-03-02 19:21:00,
2013-03-02 11:31:00,70.0,9.0,11.45,South,172,6.0,13.0,9,-99.99,,,-99.99,,2013-03-02 19:31:00,
2013-03-02 11:42:00,71.0,9.0,11.46,SSE,156,5.0,11.0,9,-99.99,,,-99.99,,2013-03-02 19:42:00,
2013-03-02 11:52:00,71.0,12.0,11.46,South,173,6.0,13.0,10,-99.99,,,-99.99,,2013-03-02 19:52:00,
2013-03-02 12:01:00,71.0,12.0,11.47,South,176,5.0,11.0,10,-99.99,,,-99.99,,2013-03-02 20:01:00,
2013-03-02 12:11:00,71.0,12.0,11.49,SE,146,6.0,12.0,10,-99.99,,,-99.99,,2013-03-02 20:11:00,
2013-03-02 12:21:00,72.0,12.0,11.49,South,169,6.0,13.0,10,-99.99,,,-99.99,,2013-03-02 20:21:00,
2013-03-02 12:31:00,72.0,10.0,11.47,South,189,7.0,13.0,9,-99.99,,,-99.99,,2013-03-02 20:31:00,
2013-03-02 12:41:00,72.0,7.0,11.44,South,191,6.0,10.0,8,-99.99,,,-99.99,,2013-03-02 20:41:00,
2013-03-02 12:52:00,72.0,5.0,11.40,SW,232,5.0,9.0,7,-99.99,,,-99.99,,2013-03-02 20:52:00,
2013-03-02 13:02:00,72.0,10.0,11.46,SW,218,7.0,16.0,9,-99.99,,,-99.99,,2013-03-02 21:02:00,
2013-03-02 13:11:00,73.0,11.0,11.49,SSW,210,6.0,13.0,9,-99.99,,,-99.99,,2013-03-02 21:11:00,
2013-03-02 13:21:00,74.0,12.0,11.51,SSW,203,5.0,12.0,9,-99.99,,,-99.99,,2013-03-02 21:21:00,
2013-03-02 13:31:00,73.0,13.0,11.51,SW,216,7.0,15.0,10,-99.99,,,-99.99,,2013-03-02 21:31:00,
2013-03-02 13:41:00,72.0,15.0,11.55,West,267,8.0,13.0,11,-99.99,,,-99.99,,2013-03-02 21:41:00,
2013-03-02 13:52:00,72.0,15.0,11.56,West,260,10.0,17.0,11,-99.99,,,-99.99,,2013-03-02 21:52:00,
2013-03-02 14:01:00,72.0,15.0,11.56,West,260,10.0,17.0,11,-99.99,,,-99.99,,2013-03-02 22:01:00,
2013-03-02 14:11:00,72.0,15.0,11.55,WSW,246,10.0,16.0,11,-99.99,,,-99.99,,2013-03-02 22:11:00,
2013-03-02 14:21:00,71.0,14.0,11.55,West,261,10.0,16.0,11,-99.99,,,-99.99,,2013-03-02 22:21:00,
2013-03-02 14:31:00,71.0,18.0,11.59,West,264,8.0,16.0,13,-99.99,,,-99.99,,2013-03-02 22:31:00,
2013-03-02 14:42:00,71.0,18.0,11.59,WSW,239,8.0,13.0,13,-99.99,,,-99.99,,2013-03-02 22:42:00,
2013-03-02 14:51:00,70.0,19.0,11.63,West,273,11.0,19.0,14,-99.99,,,-99.99,,2013-03-02 22:51:00,
2013-03-02 15:01:00,69.0,19.0,11.65,West,281,11.0,18.0,15,-99.99,,,-99.99,,2013-03-02 23:01:00,
2013-03-02 15:11:00,70.0,22.0,11.66,WNW,292,9.0,13.0,16,-99.99,,,-99.99,,2013-03-02 23:11:00,
2013-03-02 15:21:00,70.0,22.0,11.66,WNW,295,8.0,13.0,16,-99.99,,,-99.99,,2013-03-02 23:21:00,
2013-03-02 15:31:00,70.0,22.0,11.67,WNW,285,7.0,11.0,16,-99.99,,,-99.99,,2013-03-02 23:31:00,
2013-03-02 15:41:00,70.0,22.0,11.68,West,280,8.0,14.0,16,-99.99,,,-99.99,,2013-03-02 23:41:00,
2013-03-02 15:52:00,69.0,22.0,11.68,WNW,285,7.0,12.0,17,-99.99,,,-99.99,,2013-03-02 23:52:00,
2013-03-02 16:02:00,68.0,22.0,11.69,WNW,296,9.0,14.0,17,-99.99,,,-99.99,,2013-03-03 00:02:00,
2013-03-02 16:11:00,67.0,22.0,11.69,WNW,283,6.0,12.0,18,-99.99,,,-99.99,,2013-03-03 00:11:00,
2013-03-02 16:22:00,68.0,22.0,11.68,WNW,298,5.0,9.0,17,-99.99,,,-99.99,,2013-03-03 00:22:00,
2013-03-02 16:31:00,69.0,22.0,11.66,WNW,286,5.0,10.0,17,-99.99,,,-99.99,,2013-03-03 00:31:00,
2013-03-02 16:42:00,68.0,22.0,11.67,WNW,286,5.0,7.0,17,-99.99,,,-99.99,,2013-03-03 00:42:00,
2013-03-02 16:52:00,68.0,22.0,11.68,WSW,250,7.0,12.0,17,-99.99,,,-99.99,,2013-03-03 00:52:00,
2013-03-02 17:01:00,67.0,22.0,11.67,West,276,7.0,11.0,18,-99.99,,,-99.99,,2013-03-03 01:01:00,
2013-03-02 17:11:00,66.0,23.0,11.67,WSW,254,5.0,8.0,19,-99.99,,,-99.99,,2013-03-03 01:11:00,
2013-03-02 17:21:00,65.0,23.0,11.69,WSW,248,3.0,5.0,20,-99.99,,,-99.99,,2013-03-03 01:21:00,
2013-03-02 17:31:00,65.0,24.0,11.73,WSW,251,2.0,4.0,21,-99.99,,,-99.99,,2013-03-03 01:31:00,
2013-03-02 17:41:00,65.0,24.0,11.73,WNW,284,1.0,3.0,21,-99.99,,,-99.99,,2013-03-03 01:41:00,
2013-03-02 17:52:00,65.0,24.0,11.72,West,268,4.0,7.0,21,-99.99,,,-99.99,,2013-03-03 01:52:00,
2013-03-02 18:01:00,64.0,23.0,11.70,West,273,3.0,6.0,21,-99.99,,,-99.99,,2013-03-03 02:01:00,
2013-03-02 18:11:00,63.0,24.0,11.68,NW,308,3.0,4.0,22,-99.99,,,-99.99,,2013-03-03 02:11:00,
2013-03-02 18:21:00,61.0,23.0,11.69,NW,318,2.0,4.0,23,-99.99,,,-99.99,,2013-03-03 02:21:00,
2013-03-02 18:31:00,60.0,22.0,11.67,North,359,4.0,6.0,23,-99.99,,,-99.99,,2013-03-03 02:31:00,
2013-03-02 18:41:00,60.0,22.0,11.66,NW,326,4.0,7.0,23,-99.99,,,-99.99,,2013-03-03 02:41:00,
2013-03-02 18:52:00,59.0,22.0,11.67,NW,323,3.0,4.0,24,-99.99,,,-99.99,,2013-03-03 02:52:00,
2013-03-02 19:01:00,58.0,23.0,11.70,NNW,345,3.0,5.0,26,-99.99,,,-99.99,,2013-03-03 03:01:00,
2013-03-02 19:11:00,57.0,23.0,11.72,North,352,2.0,4.0,27,-99.99,,,-99.99,,2013-03-03 03:11:00,
2013-03-02 19:21:00,56.0,23.0,11.74,WNW,291,1.0,2.0,28,-99.99,,,-99.99,,2013-03-03 03:21:00,
2013-03-02 19:31:00,55.0,23.0,11.75,ESE,109,1.0,2.0,29,-99.99,,,-99.99,,2013-03-03 03:31:00,
2013-03-02 19:41:00,55.0,23.0,11.76,North,353,2.0,5.0,29,-99.99,,,-99.99,,2013-03-03 03:41:00,
2013-03-02 19:51:00,55.0,24.0,11.80,North,6,4.0,5.0,30,-99.99,,,-99.99,,2013-03-03 03:51:00,
2013-03-02 20:01:00,54.0,24.0,11.79,NW,318,2.0,5.0,31,-99.99,,,-99.99,,2013-03-03 04:01:00,
2013-03-02 20:11:00,53.0,24.0,11.80,WSW,256,2.0,3.0,32,-99.99,,,-99.99,,2013-03-03 04:11:00,
2013-03-02 20:21:00,53.0,23.0,11.80,North,353,2.0,3.0,31,-99.99,,,-99.99,,2013-03-03 04:21:00,
2013-03-02 20:31:00,53.0,24.0,11.81,NW,318,2.0,3.0,32,-99.99,,,-99.99,,2013-03-03 04:31:00,
2013-03-02 20:41:00,53.0,24.0,11.82,NW,320,2.0,3.0,32,-99.99,,,-99.99,,2013-03-03 04:41:00,
2013-03-02 20:51:00,52.0,24.0,11.83,NNW,333,3.0,4.0,33,-99.99,,,-99.99,,2013-03-03 04:51:00,
2013-03-02 21:01:00,51.0,24.0,11.85,NW,321,3.0,4.0,34,-99.99,,,-99.99,,2013-03-03 05:01:00,
2013-03-02 21:11:00,51.0,24.0,11.88,NNW,337,3.0,3.0,34,-99.99,,,-99.99,,2013-03-03 05:11:00,
2013-03-02 21:22:00,51.0,24.0,11.85,NW,318,2.0,3.0,34,-99.99,,,-99.99,,2013-03-03 05:22:00,
2013-03-02 21:32:00,51.0,24.0,11.85,NW,326,2.0,3.0,34,-99.99,,,-99.99,,2013-03-03 05:32:00,
2013-03-02 21:42:00,50.0,24.0,11.90,NNW,341,2.0,4.0,36,-99.99,,,-99.99,,2013-03-03 05:42:00,
2013-03-02 21:52:00,49.0,24.0,11.93,NNW,328,3.0,4.0,37,-99.99,,,-99.99,,2013-03-03 05:52:00,
2013-03-02 22:01:00,49.0,25.0,11.96,NNW,340,3.0,4.0,38,-99.99,,,-99.99,,2013-03-03 06:01:00,
2013-03-02 22:11:00,49.0,24.0,11.92,NNW,327,3.0,4.0,37,-99.99,,,-99.99,,2013-03-03 06:11:00,
2013-03-02 22:21:00,50.0,23.0,11.86,NNW,328,4.0,4.0,35,-99.99,,,-99.99,,2013-03-03 06:21:00,
2013-03-02 22:31:00,48.0,24.0,11.91,NNW,343,3.0,4.0,38,-99.99,,,-99.99,,2013-03-03 06:31:00,
2013-03-02 22:42:00,48.0,24.0,11.91,NNW,343,3.0,4.0,38,-99.99,,,-99.99,,2013-03-03 06:42:00,
2013-03-02 22:52:00,48.0,22.0,11.88,NNW,334,3.0,4.0,36,-99.99,,,-99.99,,2013-03-03 06:52:00,
2013-03-02 23:01:00,48.0,22.0,11.88,NNW,334,3.0,4.0,36,-99.99,,,-99.99,,2013-03-03 07:01:00,
2013-03-02 23:11:00,49.0,23.0,11.83,NW,326,4.0,4.0,35,-99.99,,,-99.99,,2013-03-03 07:11:00,
2013-03-02 23:21:00,48.0,22.0,11.84,NNW,339,4.0,4.0,36,-99.99,,,-99.99,,2013-03-03 07:21:00,
2013-03-02 23:31:00,49.0,23.0,11.83,NNW,334,3.0,4.0,35,-99.99,,,-99.99,,2013-03-03 07:31:00,
2013-03-02 23:42:00,48.0,21.0,11.79,NW,321,3.0,4.0,34,-99.99,,,-99.99,,2013-03-03 07:42:00,
2013-03-02 23:51:00,49.0,21.0,11.78,NNW,327,3.0,4.0,33,-99.99,,,-99.99,,2013-03-03 07:51:00,